{"data":{"norad_id":56772,"intl_designator":"2023-078F","name":"STARLINK-6275","alt_names":[],"object_type":"PAYLOAD","status":"ACTIVE","operator":null,"country":"US","launch_date":"2023-05-31","launch_site_code":"AFWTR","launch_vehicle":null,"mission":null,"orbit_class":"UNKNOWN","rcs_meters":null,"size_class":null,"mass_kg":null,"dimensions":null,"purposes":["comms"],"wikipedia_slug":null,"has_3d_model":false,"image_url":null,"decayed_at":null,"tle_current":{"epoch":"2026-05-25T02:27:59.817888Z","epoch_age_seconds":65898,"freshness":"FRESH","line1":"1 56772U 23078F   26145.10277567  .00000112  00000+0  17217-4 0  9995","line2":"2 56772  69.9984 171.7663 0003908 267.4373  92.6338 14.98331120163639","mean_motion":14.9833112,"eccentricity":0.0003908,"inclination_deg":69.9984,"raan_deg":171.7663,"arg_perigee_deg":267.4373,"mean_anomaly_deg":92.6338,"bstar":1.7217e-5,"rev_number":16363,"period_min":96.106927285873,"perigee_km":569.33629341072,"apogee_km":574.76856146721,"semimajor_km":6950.189427439,"source":"CELESTRAK","updated_at":"2026-05-25T13:38:18.124141Z"}}}